Location: Ortigosa del Monte
(40.8418°N, 4.1772°W)
Time: 19:12:41
(UTC+00:00)

Daily predictions for brighter satellites

Satellite Brightness Start Highest point End
(mag) Time Altitude Azimuth Time Altitude Azimuth Time Altitude Azimuth
ATLAS 5 CENTAUR R/B 2.9 17:10:40 10° NW 17:16:32 70° WSW 17:23:17 10° SSE
Cosmos 2333 Rocket 2.9 17:13:14 10° SW 17:18:49 57° WNW 17:24:25 10° NNE
Radarsat Rocket 4.0 17:17:18 10° SSE 17:23:09 74° ENE 17:29:33 10° NNW
COSMOS 2428 3.2 17:18:22 10° SSW 17:24:03 67° WNW 17:29:47 10° NNE
NOAA 6 4.1 17:21:36 10° SSE 17:26:46 87° WSW 17:31:57 10° NNW
H-2A R/B 2.0 17:22:52 10° NNE 17:27:03 82° ESE 17:31:17 10° SSW
Cosmos 2074 Rocket 4.0 17:21:14 10° N 17:27:30 85° E 17:33:45 10° S
Cosmos 372 Rocket 4.0 17:22:57 10° NNW 17:28:07 87° ENE 17:33:18 10° SSE
Landsat 5 4.0 17:25:37 10° N 17:29:58 71° WNW 17:34:25 10° SSW
NOSS 2-1 (D) 4.5 17:25:47 10° NNW 17:31:01 61° NE 17:38:24 10° SE
Cosmos 2298 Rocket 4.1 17:26:30 10° NNW 17:31:44 57° ENE 17:36:57 10° SSE
Cosmos 1862 3.4 17:28:17 10° N 17:32:16 56° E 17:36:12 10° SSE
Cosmos 1818 4.0 17:27:12 10° NNW 17:32:22 40° NE 17:37:29 10° ESE
Cosmos 2150 Rocket 4.1 17:28:30 10° N 17:33:34 53° ENE 17:38:34 10° SE
ADEOS Rocket 4.0 17:27:39 10° N 17:35:13 67° WNW 17:42:53 10° SSW
Cosmos 2278 Rocket 2.3 17:30:27 10° NNW 17:36:03 56° ENE 17:41:37 10° SE
CZ-4 R/B 3.2 17:37:52 11° ENE 17:37:52 11° ENE 17:38:49 10° NE
Cosmos 2184 Rocket 4.2 17:32:23 10° N 17:38:48 82° W 17:45:09 10° S
USA 215 3.3 17:33:06 10° NE 17:39:40 83° SE 17:46:13 10° SW
BREEZE-M DEB (TANK) 1.8 17:44:10 10° WSW 17:47:28 80° NW 17:48:48 19° NE
Abrixas rocket 2.2 17:47:21 10° NW 17:50:01 42° NNE 17:51:40 19° E
Cosmos 2221 3.8 17:46:37 10° SSW 17:50:44 43° WNW 17:54:53 10° N
Cosmos 1125 Rocket 3.6 17:46:12 10° N 17:51:17 54° ENE 17:56:23 10° SE
Cosmos 1295 Rocket 4.4 17:45:41 10° N 17:51:49 69° E 17:58:00 10° SSE
Cosmos 1939 Rocket 3.5 17:48:25 10° SE 17:51:49 30° ENE 17:55:15 10° N
Cosmos 1356 4.3 17:50:07 10° NNE 17:53:06 27° ENE 17:56:04 10° SE
Cosmos 1689 Rocket 3.6 17:53:50 18° E 17:53:53 18° E 17:56:01 10° SE
Cosmos 2219 Rocket 3.7 17:48:58 10° WSW 17:54:02 33° WNW 17:59:07 10° N
Cosmos 1500 Rocket 4.1 17:51:11 10° NNW 17:55:32 64° W 17:59:54 10° S
CZ-4B R/B 3.4 17:50:22 10° S 17:55:44 76° WSW 18:01:05 10° NNW
ERS-2 2.2 17:52:11 10° NNE 17:55:48 56° ESE 17:59:23 10° S
ISS -3.2 17:53:27 10° WSW 17:56:44 53° NNW 17:59:04 18° NE
NOAA 12 4.3 17:53:32 10° S 17:58:51 77° WSW 18:04:12 10° NNW
FengYun 1-2 T 4.2 17:53:43 10° SSE 17:59:16 76° ENE 18:04:48 10° N
Cosmos 2237 Rocket 2.2 17:56:08 10° SSW 18:01:45 85° WNW 18:07:25 10° NNE
NOAA 11 4.1 17:58:15 10° SSE 18:03:39 78° ENE 18:09:06 10° N
YAOGAN 1 3.8 18:03:52 20° ENE 18:03:52 20° ENE 18:06:50 10° NNE
CZ-4B R/B 1.0 18:00:45 10° NNE 18:03:49 86° E 18:06:55 10° SSW
SL-24 R/B - RUBIN 2 4.2 17:57:53 10° NNW 18:04:08 67° NE 18:09:38 10° SE
TELKOM 3 3.4 18:04:26 10° WSW 18:07:10 58° NNW 18:07:59 34° NNE
Okean-O 3.5 18:05:30 10° SE 18:09:15 28° ENE 18:13:00 10° N
USA 267 3.6 18:05:49 15° E 18:10:57 46° NNE 18:17:05 10° NW
COSMO-SKYMED 1 2.5 18:11:52 10° NNE 18:16:12 63° E 18:20:29 10° S
SL-24 R/B 4.0 18:13:04 13° NNE 18:16:38 48° E 18:20:15 10° S
Cosmos 2369 Rocket 4.0 18:14:56 10° NNE 18:16:39 13° NNE 18:16:39 13° NNE
USA 81 4.2 18:12:51 10° N 18:17:59 48° E 18:23:03 10° SSE
Cosmos 2218 Rocket 4.2 18:12:23 10° N 18:18:16 45° ENE 18:24:06 10° SSE
Cosmos 1980 4.3 18:14:10 10° SW 18:19:45 57° WNW 18:25:22 10° NNE
Okean O Rocket 3.0 18:18:10 10° S 18:22:15 40° W 18:26:23 10° NNW
H-2A R/B 2.9 18:23:36 28° ENE 18:24:10 29° ENE 18:28:37 10° N
CZ-4 R/B 4.5 18:20:10 10° SSE 18:24:12 54° ENE 18:28:15 10° N
Cosmos 1933 3.2 18:24:29 10° S 18:28:28 71° E 18:31:27 18° NNE
BREEZE-M DEB (TANK) 3.8 18:25:53 10° SSW 18:28:54 19° SSE 18:29:05 19° SE
Sich 1 3.2 18:24:53 10° NNW 18:29:16 75° W 18:33:36 10° S
Cosmos 2366 rocket 4.0 18:24:42 10° N 18:30:47 54° E 18:36:47 10° SSE
PSLV R/B 3.8 18:30:53 25° NNE 18:33:08 68° ESE 18:37:09 10° S
Cosmos 773 Rocket 4.3 18:30:20 10° S 18:35:16 45° ESE 18:36:42 36° ENE
Cosmos 783 Rocket 4.4 18:34:12 10° S 18:39:28 72° ESE 18:42:31 26° NNE
Helios 1A Rocket 2.8 18:36:36 10° SSE 18:40:33 57° ENE 18:44:30 10° N
Cosmos 2297 3.8 18:36:32 10° NNW 18:42:05 51° ENE 18:44:22 33° ESE
Cosmos 1666 Rocket 3.5 18:39:30 10° N 18:43:54 83° W 18:48:19 10° S
Cosmos 1151 Rocket 2.8 18:40:07 10° S 18:44:25 86° E 18:46:45 27° N
Meteor 1-26 Rocket 4.3 18:41:10 10° S 18:47:05 70° E 18:53:07 10° NNE
Cosmos 1328 Rocket 3.3 18:43:04 10° S 18:47:21 81° E 18:48:55 39° NNE
SL-16 R/B 2.1 18:43:13 10° SSW 18:48:52 83° ESE 18:51:51 29° NNE
Cosmos 1782 4.0 18:46:06 10° S 18:48:10 29° SSE 18:48:10 29° SSE
SL-24 DEB 4.1 18:45:37 10° N 18:50:25 79° E 18:55:08 10° S
Cosmos 1943 Rocket 3.0 18:45:45 10° N 18:49:30 31° NNE 18:49:30 31° NNE
USA 281 3.1 18:44:25 10° SSE 18:50:58 81° ENE 18:57:34 10° NNW
Cosmos 2341 Rocket 4.5 18:46:08 10° NNW 18:52:18 62° W 18:58:30 10° S
BREEZE-M R/B 4.3 18:54:06 10° WNW 18:56:01 29° W 18:56:01 29° W
MOS 1 Rocket 3.5 18:53:31 24° NNE 18:56:55 75° E 19:02:20 10° S
NOAA 15 4.4 18:53:13 10° SSE 18:58:30 79° ENE 19:03:49 10° N
CZ-2C R/B 2.9 18:54:10 10° SSE 18:59:26 87° ENE 19:04:26 10° NNW
Cosmos 1867 4.1 19:00:38 10° SW 19:05:57 55° NW 19:08:14 32° N
Cosmos 2285 Rocket 3.9 19:01:55 10° NNW 19:08:22 82° ENE 19:13:31 16° SSE
Lacrosse 5 rocket 2.4 19:06:42 10° SW 19:08:55 35° SW 19:08:55 35° SW
CZ-4 R/B 2.8 19:13:54 30° NNW 19:13:54 30° NNW 19:16:05 10° NNW
SL-23 DEB 4.4 19:11:26 10° SW 19:14:48 70° SSW 19:14:48 70° SSW
Cosmos 1633 Rocket 4.1 19:11:15 10° NNW 19:15:25 44° W 19:19:32 10° SSW
H-2A R/B (2) 4.4 18:42:02 10° W 19:20:02 40° SSW 19:24:29 22° SSE
USA 215 4.3 19:19:38 26° NNE 19:22:16 36° NNW 19:28:05 10° W
BREEZE-M DEB (TANK) 3.8 19:20:40 10° SW 19:28:11 62° SW 19:28:11 62° SW
CSL-04 Debris 4.4 19:33:38 68° NW 19:33:38 68° NW 19:38:34 10° NNW
ISS -0.4 19:31:55 10° NW 19:32:02 10° NW 19:32:02 10° NW
Cosmos 44 4.4 19:30:24 10° NNW 19:33:53 43° NNW 19:33:53 43° NNW
YAOGAN 1 4.4 19:41:02 27° NW 19:41:02 27° NW 19:43:30 10° NNW
USA 267 3.6 19:53:13 55° SSW 19:53:50 58° SW 20:00:15 10° NW
Cosmos 2369 Rocket 4.3 19:57:05 10° NNW 19:58:27 18° NNW 19:58:27 18° NNW
H-2A R/B 3.5 20:04:14 34° WNW 20:04:14 34° WNW 20:08:16 10° NNW
ATLAS CENTAUR R/B 4.0 20:05:10 10° NW 20:21:33 65° WSW 20:21:56 64° SW
